Weather History for Ellensburg, WA

Change the Weather History Date:

Monday, September 3, 2012

  Actual Average (KYKM) Record (KYKM)
Temperature  
Mean Temperature 65 °F 65 °F  
Max Temperature 84 °F 82 °F 100 °F (1988)
Min Temperature 46 °F 47 °F 35 °F (2000)
Degree Days  
Heating Degree Days 0 2  
Month to date heating degree days 6  
Since 1 July heating degree days 54  
Cooling Degree Days 0 2  
Month to date cooling degree days 6  
Year to date cooling degree days 446  
Growing Degree Days 15 (Base 50)    
Moisture  
Dew Point 42 °F    
Average Humidity 44    
Maximum Humidity 71    
Minimum Humidity 17    
Precipitation  
Precipitation 0.00 in 0.02 in 0.29 in (1978)
Month to date precipitation 0.04  
Year to date precipitation 4.81  
Snow  
Snow 0.00 in 0.00 in 0.00 in (2002)
Month to date snowfall 0.0  
Year to date snowfall 8.6  
Since 1 July snowfall 0.0  
Snow Depth -    
Sea Level Pressure  
Sea Level Pressure 30.04 in    
Wind  
Wind Speed 11 mph (NNW)    
Max Wind Speed 24 mph    
Max Gust Speed 32 mph    
Visibility 10 miles    
Events      
T = Trace of Precipitation, MM = Missing Value Source: NWS Daily Summary

Daily Weather History Graph

Daily Weather History Graph

Search for Another Location

Airport:

Trip Planner

Search our weather history database for the weather conditions in past years. The results will help you decide how hot, cold, wet, or windy it might be!

Date:

Astronomy

Sep. 03, 2012 Rise Set
Actual Time 6:24 AM PDT 7:36 PM PDT
Civil Twilight 5:53 AM PDT 8:07 PM PDT
Nautical Twilight 5:15 AM PDT 8:45 PM PDT
Astronomical Twilight 4:35 AM PDT 9:25 PM PDT
Moon 8:39 PM PDT 9:55 AM PDT
Length of Visible Light 14h 14m
Length of Day
13h 11m
Waning Gibbous, 90% of the Moon is Illuminated
Sep 3
Waning Gibbous
Sep 8
Last Quarter
Sep 15
New
Sep 22
First Quarter
Sep 29
Full

Hourly Weather History & Observations

Time (PDT) Temp. Dew Point Humidity Pressure Visibility Wind Dir Wind Speed Gust Speed Precip Events Conditions
12:53 AM 60.1 °F 43.0 °F 53% 30.05 in 10.0 mi NNW 16.1 mph - N/A   Clear
1:53 AM 60.1 °F 42.1 °F 51% 30.04 in 10.0 mi NNW 15.0 mph - N/A   Clear
2:53 AM 57.9 °F 41.0 °F 53% 30.05 in 10.0 mi NNW 4.6 mph - N/A   Clear
3:53 AM 54.0 °F 41.0 °F 62% 30.05 in 10.0 mi WNW 4.6 mph - N/A   Clear
4:53 AM 51.1 °F 39.0 °F 63% 30.06 in 10.0 mi ENE 6.9 mph - N/A   Clear
5:53 AM 48.0 °F 39.0 °F 71% 30.06 in 10.0 mi Calm Calm - N/A   Clear
6:53 AM 46.9 °F 37.9 °F 71% 30.08 in 10.0 mi NE 4.6 mph - N/A   Clear
7:53 AM 55.9 °F 42.1 °F 60% 30.09 in 10.0 mi Calm Calm - N/A   Clear
8:53 AM 60.1 °F 43.0 °F 53% 30.09 in 10.0 mi ESE 3.5 mph - N/A   Clear
9:53 AM 64.9 °F 45.0 °F 48% 30.08 in 10.0 mi SE 4.6 mph - N/A   Clear
10:53 AM 71.1 °F 45.0 °F 39% 30.06 in 10.0 mi SE 5.8 mph - N/A   Clear
11:53 AM 75.9 °F 42.1 °F 30% 30.04 in 10.0 mi SSE 4.6 mph - N/A   Clear
12:53 PM 79.0 °F 42.1 °F 27% 30.03 in 10.0 mi East 6.9 mph - N/A   Clear
1:53 PM 81.0 °F 39.9 °F 23% 30.01 in 10.0 mi Variable 3.5 mph - N/A   Clear
2:53 PM 84.0 °F 34.0 °F 17% 29.99 in 10.0 mi West 6.9 mph - N/A   Clear
3:53 PM 81.0 °F 42.1 °F 25% 29.99 in 10.0 mi NW 17.3 mph 24.2 mph N/A   Clear
4:53 PM 79.0 °F 43.0 °F 28% 29.98 in 10.0 mi NW 24.2 mph 32.2 mph N/A   Clear
5:53 PM 75.9 °F 41.0 °F 29% 29.99 in 10.0 mi NW 19.6 mph 32.2 mph N/A   Clear
6:53 PM 72.0 °F 43.0 °F 35% 30.00 in 10.0 mi NW 21.9 mph 29.9 mph N/A   Clear
7:53 PM 68.0 °F 42.1 °F 39% 30.01 in 10.0 mi NW 24.2 mph 31.1 mph N/A   Clear
8:53 PM 66.0 °F 42.1 °F 42% 30.04 in 10.0 mi NW 21.9 mph 29.9 mph N/A   Clear
9:53 PM 64.9 °F 42.1 °F 43% 30.04 in 10.0 mi NW 21.9 mph 27.6 mph N/A   Clear
10:53 PM 63.0 °F 43.0 °F 48% 30.05 in 10.0 mi WNW 19.6 mph 26.5 mph N/A   Clear
11:53 PM 61.0 °F 43.0 °F 52% 30.06 in 10.0 mi NW 15.0 mph 23.0 mph N/A   Clear